"Pseudo-MPEC" for P112eHp

Created 2020 Jul 10 16:07:05 UT using Find_Orb

Click here for an explanation of pseudo-MPECs

 
 Astrometry: 
     P112eHp  C2020 06 28n`EiAstrometrynC[Aredacted;9`mf2niTHGykPY%8YU8+,k=P:F51
     P112eHp  C2020 06 28a1[K(@^(i'bCP/BA_!FR4VD?NPdkZ$RclickF9-qAM/#7f_AO[5\F51
     P112eHp  C2020 06 28AJreCo.lPhere2xv+GGYW%OHEiCtJ_caU*1(oU(e=to)sE/XF1k#F51
     P112eHp  C2020 06 28jA%5for0Hc4explanationaMu=1aE'MF3oO:-:ky[twp^3ra`nXrF51
     P112eHp ^C2020 06 29.45533019 37 18.811-40 27 14.01   ~6TJM 20.71GVNEOCP568
     P112eHp ^C2020 06 29.45722519 37 18.963-40 27 30.75   ~6TJM 20.71GVNEOCP568
     P112eHp ^C2020 06 29.45817119 37 19.038-40 27 39.17   ~6TJM 20.78GVNEOCP568

Station data:
(568) Mauna Kea  (N19.826116 W155.472200)  US/Hawaii.
(F51) Pan-STARRS 1, Haleakala  (N20.707235 W156.255910)  US/Hawaii.
   Observers N. Primak, A. Schultz, S. Watters, J. Thiel, T. Goggia. Measurer
   PS1 Science Consortium. 1.8-m Ritchey-Chrétien + CCD.

Orbital elements:  P112eHp
   Perihelion 2020 Jun 30.584282 +/- 5.69 TT = 14:01:22 (JD 2459031.084282)
Epoch 2020 Jun 29.0 TT = JDT 2459029.5   Earth MOID: 0.2303   Ju: 0.7169
M 359.67658180 +/- 1.2              (J2000 ecliptic)          AutoNEOCP
n   0.20414177 +/- 0.088            Peri.  187.49574 +/- 5.0
a   2.85659138 +/- 0.821            Node    94.53383 +/- 0.31
e   0.5645608 +/- 0.115             Incl.   33.19332 +/- 2.9
P   4.83                   H 22.7   G  0.15   U 11.1  
q 1.24387161 +/- 0.0243    Q 4.46931115 +/- 1.34
From 7 observations 2020 June 28-29 (24.2 hr); mean residual 0".07
Residuals in arcseconds: 
200628 F51  .00   .12+    200628 F51  .02+  .05+    200629 568  .00   .00     
200628 F51  .01+  .21-    200629 568  .00   .03-    
200628 F51  .04-  .03+    200629 568  .00   .03+    

Ephemerides (geocentric):
Date (UTC) HH   RA              Dec         delta   r     elong  mag " sig PA
---- -- -- --  -------------   -----------  ------ ------ -----  --- ---- ---
2020 07 10 16  20 00 28.658   -63 14 43.40  .29124 1.2493 138.4 21.9  133 155
2020 07 10 17  20 00 35.198   -63 18 34.33  .29151 1.2494 138.3 21.9  134 155
2020 07 10 18  20 00 41.751   -63 22 24.71  .29178 1.2494 138.2 21.9  134 155
2020 07 10 19  20 00 48.316   -63 26 14.53  .29205 1.2495 138.2 21.9  135 155
2020 07 10 20  20 00 54.895   -63 30 03.80  .29232 1.2495 138.1 21.9  136 155
2020 07 10 21  20 01 01.486   -63 33 52.53  .29259 1.2496 138.0 21.9  137 155
2020 07 10 22  20 01 08.090   -63 37 40.70  .29287 1.2496 138.0 21.9  138 155
2020 07 10 23  20 01 14.708   -63 41 28.33  .29314 1.2497 137.9 21.9  139 155
2020 07 11 00  20 01 21.338   -63 45 15.41  .29341 1.2497 137.8 21.9  140 155
2020 07 11 01  20 01 27.981   -63 49 01.94  .29369 1.2498 137.8 21.9  141 155
2020 07 11 02  20 01 34.638   -63 52 47.92  .29396 1.2498 137.7 21.9  142 155
2020 07 11 03  20 01 41.308   -63 56 33.36  .29424 1.2498 137.6 21.9  142 155
2020 07 11 04  20 01 47.991   -64 00 18.25  .29451 1.2499 137.6 21.9  143 155
2020 07 11 05  20 01 54.687   -64 04 02.60  .29479 1.2499 137.5 21.9  144 155
2020 07 11 06  20 02 01.396   -64 07 46.40  .29507 1.2500 137.4 21.9  145 155
2020 07 11 07  20 02 08.119   -64 11 29.66  .29534 1.2500 137.4 21.9  146 155
2020 07 11 08  20 02 14.855   -64 15 12.38  .29562 1.2501 137.3 21.9  147 155
2020 07 11 09  20 02 21.604   -64 18 54.55  .29590 1.2501 137.2 21.9  148 155
2020 07 11 10  20 02 28.367   -64 22 36.18  .29618 1.2502 137.2 21.9  149 155
2020 07 11 11  20 02 35.143   -64 26 17.28  .29646 1.2502 137.1 21.9  150 155
2020 07 11 12  20 02 41.933   -64 29 57.83  .29674 1.2503 137.1 21.9  151 155
2020 07 11 13  20 02 48.736   -64 33 37.84  .29702 1.2503 137.0 21.9  152 155
2020 07 11 14  20 02 55.553   -64 37 17.31  .29730 1.2504 136.9 21.9  152 155
2020 07 11 15  20 03 02.383   -64 40 56.24  .29758 1.2504 136.9 21.9  153 155
2020 07 11 16  20 03 09.227   -64 44 34.63  .29786 1.2505 136.8 21.9  154 155
2020 07 11 17  20 03 16.084   -64 48 12.49  .29814 1.2505 136.7 22.0  155 155
2020 07 11 18  20 03 22.955   -64 51 49.81  .29842 1.2506 136.7 22.0  156 155
2020 07 11 19  20 03 29.840   -64 55 26.60  .29870 1.2506 136.6 22.0  157 155
2020 07 11 20  20 03 36.739   -64 59 02.85  .29899 1.2507 136.5 22.0  158 155
2020 07 11 21  20 03 43.651   -65 02 38.56  .29927 1.2507 136.5 22.0  159 155
2020 07 11 22  20 03 50.577   -65 06 13.74  .29955 1.2508 136.4 22.0  160 155
2020 07 11 23  20 03 57.518   -65 09 48.39  .29984 1.2508 136.4 22.0  161 155
2020 07 12 00  20 04 04.471   -65 13 22.50  .30012 1.2509 136.3 22.0  162 155
2020 07 12 01  20 04 11.439   -65 16 56.08  .30041 1.2509 136.2 22.0  163 155
2020 07 12 02  20 04 18.421   -65 20 29.14  .30069 1.2510 136.2 22.0  164 155
2020 07 12 03  20 04 25.417   -65 24 01.66  .30098 1.2510 136.1 22.0  165 155
2020 07 12 04  20 04 32.427   -65 27 33.65  .30126 1.2511 136.1 22.0  166 155
2020 07 12 05  20 04 39.450   -65 31 05.11  .30155 1.2511 136.0 22.0  167 155
2020 07 12 06  20 04 46.488   -65 34 36.04  .30184 1.2512 135.9 22.0  168 155
2020 07 12 07  20 04 53.540   -65 38 06.45  .30213 1.2512 135.9 22.0  169 155
2020 07 12 08  20 05 00.607   -65 41 36.33  .30241 1.2513 135.8 22.0  169 155
2020 07 12 09  20 05 07.687   -65 45 05.68  .30270 1.2513 135.7 22.0  170 155
2020 07 12 10  20 05 14.782   -65 48 34.51  .30299 1.2514 135.7 22.0  171 155
2020 07 12 11  20 05 21.891   -65 52 02.81  .30328 1.2514 135.6 22.0  172 155
2020 07 12 12  20 05 29.014   -65 55 30.58  .30357 1.2515 135.6 22.0  173 155
2020 07 12 13  20 05 36.151   -65 58 57.84  .30386 1.2516 135.5 22.0  174 155
2020 07 12 14  20 05 43.303   -66 02 24.57  .30415 1.2516 135.4 22.0  175 155
2020 07 12 15  20 05 50.470   -66 05 50.78  .30444 1.2517 135.4 22.0  176 155